STARLINK-33577 (62762 NORAD) Tracking and Keplerian Element Data

This shows tracking and keplerian element data for the satellite.

Feedback or suggestion? Click here.




ElementValue
Catalog62762
NameSTARLINK-33577
Epoch Orbit339
Epoch Day35.25001157
Epoch Year2025
RAAN18.7085
Inclination53.16
Eccentricity0.000119
Argument of Perigee71.9734
Mean Anonmoly189.3463
Mean Motion15.78931599
Decay Rate-0.00956383
L11 62762U 25015E 25035.25001157 -.00956383 00000+0 -59132-2 0 9999
L22 62762 53.1600 18.7085 0001190 71.9734 189.3463 15.78931599 3397



Live tracking and technical data element details for STARLINK-33577 (NORAD 62762). STARLINK-33577 can be tracked NOW for your location showing map with azimuth and elevation plus other details from your city location.







IsCatalogInMostPopularTable: catalog: 62762, numindb: 3
Update: records affected: 1



GetName: 62762 STARLINK-33577

Hit Count: updated at: Sun, 09 Feb 2025 14:58:22 GMT